Location: NJAA Observatory
(40.6819°N, 74.8979°W)
Time: 18:12:36
(UTC-04:00)

Iridium 56 - Visible Passes

Search period start: 30 May 2016 00:00
Search period end: 09 June 2016 00:00
Orbit: 776 x 779 km, 86.4° (Epoch: 30 May)

Date Brightness Start Highest point End Pass type
(mag) Time Alt. Az. Time Alt. Az. Time Alt. Az.
01 Jun 8.7 04:29:59 10° NE 04:32:08 12° ENE 04:34:17 10° E visible
04 Jun 8.3 04:28:56 10° NNE 04:32:28 18° ENE 04:35:59 10° ESE visible
07 Jun 7.8 04:28:26 10° NNE 04:32:45 26° ENE 04:37:02 10° SE visible
08 Jun 8.4 03:56:09 10° NE 03:58:53 14° ENE 04:01:38 10° ESE visible
